Terug naar catalogus

STARLINK-34899

ActiefCommunicatieVLEO
NORAD 65323·PAYLOAD·🇺🇸 United States

Gelanceerd Aug 27, 2025 vanaf Cape Canaveral Space Force Station

Loading…

Volgende Passages (komende 24 uur)

TLE

VersSource: CelesTrak SupGP

Epoch: Sep 14, 2026, 21:17 UTC

1 65323C 25189A   26257.88729167  .00043935  00000+0  14132-2 0  2577
2 65323  53.1601  46.3557 0001253  80.9863   0.5681 15.31670727    12

Volg STARLINK-34899 in realtime met AllMySat

Download on the App Store